FW1970 Weather Reports


Display with metric or nautical units.
time (UTC)temp
F
wind
direction
speed
MPH
gust
MPH
rain 1hr
in
rain 24hr
in
rain mn
in
humidity
%
barometer
mb
20260904131523 70 360 1.0 4.0 0.00 2.43 0.38 88 1014.5
20260904130037 70 360 0.0 3.0 0.00 2.43 0.38 88 1014.6
20260904124522 70 360 1.0 3.0 0.00 2.52 0.38 89 1014.6
20260904123023 69 360 0.0 1.0 0.00 2.52 0.38 88 1014.9
20260904121514 70 360 0.0 1.0 0.00 2.52 0.38 89 1014.6
20260904120010 68 360 0.0 1.0 0.00 2.52 0.38 89 1014.8
20260904114507 67 360 1.0 3.0 0.00 2.52 0.38 88 1014.6
20260904113005 67 360 0.0 3.0 0.00 2.52 0.38 89 1014.4
20260904111502 67 360 0.0 0.0 0.00 2.52 0.38 88 1013.9
20260904110100 67 360 0.0 0.0 0.00 2.52 0.38 88 1014.1
20260904110002 67 360 0.0 0.0 0.00 2.52 0.38 88 1014.1
20260904104600 67 360 0.0 0.0 0.00 2.52 0.38 88 1013.9
20260904103058 67 360 0.0 2.0 0.00 2.52 0.38 88 1013.9
20260904101600 67 360 1.0 3.0 0.00 2.52 0.38 88 1013.6
20260904100057 67 360 2.0 4.0 0.00 2.52 0.38 88 1013.6
20260904094556 67 360 1.0 3.0 0.00 2.52 0.38 88 1013.4
20260904093056 67 360 1.0 3.0 0.01 2.52 0.38 88 1013.4
20260904091555 67 360 2.0 4.0 0.01 2.52 0.38 88 1013.6
20260904091525 67 360 2.0 4.0 0.01 2.52 0.38 88 1013.6
20260904090054 67 360 0.0 3.0 0.01 2.52 0.38 88 1013.5
20260904084554 67 360 0.0 0.0 0.01 2.52 0.38 88 1013.7
20260904083053 67 360 0.0 0.0 0.00 2.50 0.37 88 1013.5
20260904081558 67 360 0.0 0.0 0.00 2.50 0.37 88 1013.2
20260904080052 67 360 0.0 0.0 0.00 2.50 0.37 88 1013.2
20260904074554 67 360 0.0 0.0 0.00 2.50 0.37 88 1013.3
20260904073051 67 360 0.0 2.0 0.00 2.50 0.37 88 1013.2
20260904071550 67 360 1.0 6.0 0.00 2.50 0.37 88 1013.5
20260904070050 67 360 2.0 8.0 0.00 2.50 0.37 88 1013.4
20260904064554 67 360 2.0 8.0 0.01 2.50 0.37 88 1013.4
20260904063047 67 360 6.0 10.0 0.37 2.50 0.37 88 1013.7
20260904061551 67 360 0.0 6.0 0.37 2.50 0.37 88 1013.5
20260904060047 67 360 5.0 10.0 0.37 2.50 0.37 88 1014.0
20260904054544 67 360 2.0 11.0 0.36 2.50 0.36 88 1013.9
20260904053041 67 360 6.0 16.0 0.00 2.14 0.00 88 1014.6
20260904051539 67 360 1.0 8.0 0.00 2.14 0.00 88 1012.9
20260904050138 67 360 2.0 6.0 0.00 2.14 0.00 88 1012.5
20260904044550 67 360 3.0 6.0 0.00 2.14 0.00 88 1012.9
20260904043056 67 360 3.0 8.0 0.00 2.14 0.00 88 1013.4
20260904041533 67 360 1.0 10.0 0.00 2.14 0.00 88 1013.3
20260904040031 67 360 3.0 6.0 0.00 2.14 0.00 88 1013.4
20260904034530 67 360 4.0 9.0 0.00 2.14 2.14 88 1013.4
20260904033030 67 360 2.0 8.0 0.00 2.14 2.14 88 1013.5
20260904031529 68 360 4.0 13.0 0.00 2.14 2.14 88 1013.3
20260904030029 68 360 4.0 10.0 0.00 2.14 2.14 88 1013.5
20260904024529 68 360 1.0 5.0 0.00 2.14 2.14 88 1013.9
20260904023131 68 360 3.0 6.0 0.00 2.14 2.14 88 1014.0
20260904021527 69 360 3.0 6.0 0.00 2.14 2.14 88 1014.3
20260904020027 69 360 2.0 4.0 0.00 2.14 2.14 88 1014.0
20260904014525 68 360 3.0 5.0 0.02 2.14 2.14 88 1014.0
20260904013024 68 360 0.0 4.0 0.09 2.14 2.14 88 1014.3
20260904011527 69 360 0.0 3.0 0.32 2.14 2.14 88 1014.3
20260904010024 68 360 4.0 9.0 0.40 2.14 2.14 87 1013.6
20260904004524 68 360 4.0 15.0 0.39 2.12 2.12 87 1014.1
20260904003020 69 360 8.0 14.0 0.41 2.04 2.04 86 1015.8
20260904001519 67 360 9.0 18.0 0.49 1.79 1.79 85 1015.1
20260904000018 67 360 1.0 3.0 0.73 1.74 1.74 84 1012.5
20260903234524 67 360 1.0 9.0 0.73 1.73 1.73 84 1012.9
20260903233018 67 360 3.0 10.0 0.74 1.61 1.61 81 1013.5
20260903231515 67 360 4.0 12.0 0.54 1.23 1.23 80 1015.0
20260903230012 68 360 7.0 19.0 0.73 1.01 1.01 78 1013.9
20260903224521 69 360 7.0 12.0 0.71 0.99 0.99 77 1014.4
20260903223007 69 360 5.0 13.0 0.57 0.86 0.86 73 1014.3
20260903221507 70 360 7.0 18.0 0.35 0.63 0.63 70 1014.0
20260903220007 74 360 9.0 34.0 0.00 0.28 0.28 65 1011.9
20260903214504 85 302 3.0 7.0 0.00 0.28 0.28 58 1011.5
20260903213003 85 219 3.0 6.0 0.00 0.28 0.28 58 1011.2
20260903211502 86 196 2.0 5.0 0.00 0.28 0.28 57 1011.2
20260903210001 86 195 4.0 7.0 0.00 0.28 0.28 56 1010.6
20260903204600 86 178 4.0 8.0 0.00 0.28 0.28 56 1010.6
20260903203058 87 248 5.0 10.0 0.00 0.28 0.28 55 1011.4
20260903201557 88 200 2.0 10.0 0.00 0.28 0.28 55 1011.2
20260903200056 88 250 6.0 11.0 0.00 0.28 0.28 53 1011.4
20260903194553 88 147 5.0 13.0 0.00 0.28 0.28 53 1011.5
20260903193050 87 276 6.0 12.0 0.00 0.28 0.28 54 1012.0
20260903191553 87 200 5.0 8.0 0.00 0.28 0.28 54 1012.3
20260903190047 86 153 3.0 10.0 0.00 0.28 0.28 55 1013.0
20260903184553 86 210 3.0 8.0 0.00 0.28 0.28 54 1013.0
20260903183044 85 121 2.0 10.0 0.00 0.28 0.28 55 1012.9
20260903181541 84 222 4.0 10.0 0.00 0.28 0.28 55 1013.3
20260903180048 83 217 5.0 12.0 0.00 0.28 0.28 56 1013.5
20260903174541 83 207 4.0 10.0 0.00 0.28 0.28 57 1013.6
20260903173038 81 229 7.0 11.0 0.00 0.28 0.28 58 1013.9
20260903171536 81 225 4.0 13.0 0.00 0.28 0.28 60 1013.9
20260903170036 81 133 1.0 10.0 0.00 0.28 0.28 62 1014.0
20260903164532 79 220 3.0 10.0 0.00 0.28 0.28 63 1014.0
20260903163032 78 148 4.0 8.0 0.00 0.28 0.28 64 1014.2
20260903161527 76 166 6.0 11.0 0.00 0.28 0.28 66 1014.3
20260903160027 74 140 6.0 11.0 0.00 0.28 0.28 69 1014.5
20260903154524 72 360 5.0 12.0 0.00 0.28 0.28 78 1015.0
20260903153023 71 360 5.0 11.0 0.00 0.28 0.28 84 1015.3
20260903151521 71 360 3.0 9.0 0.01 0.28 0.28 85 1015.5
20260903150028 70 360 4.0 8.0 0.01 0.28 0.28 86 1015.7
20260903144517 69 360 4.0 8.0 0.03 0.28 0.28 84 1015.5
20260903143024 69 360 2.0 11.0 0.05 0.28 0.28 83 1016.0
20260903141514 69 360 6.0 11.0 0.17 0.27 0.27 82 1015.0
20260903140017 69 360 2.0 4.0 0.18 0.27 0.27 80 1015.2
20260903134510 68 360 0.0 3.0 0.25 0.25 0.25 77 1015.8
20260903133007 69 360 0.0 6.0 0.23 0.23 0.23 75 1015.7